DLH47 KBOS-EDDF

Flight info

Callsign DLH47
Flight time N/A
Altitude 35000
Route LBSTA8 LBSTA DCT EBONY N505B ALLRY/M083F370 NATT SOVED/N0472F370 DCT KUGUR DCT BELOX L603 DOLAS DCT NAVPI DCT NOLRU DCT DIXAT DIXAT1A
Aircraft A346/H-SDE2E3FGHIJ3J4J5M1RWXY/LB1D1

Departure

Time 2026-05-03 23:30
Airport Boston Logan International Airport (KBOS)

Arrival

Time N/A
Airport Frankfurt Main Airport (EDDF)
Time Latitude Longitude Altitude Speed Heading
2026-05-03 23:02 42.37056 -71.02247 34 ft 0 kts 141°
2026-05-03 23:14 42.37058 -71.02250 33 ft 3 kts 142°
2026-05-03 23:14 42.37077 -71.02262 32 ft 4 kts 174°
2026-05-03 23:14 42.37100 -71.02266 33 ft 2 kts 162°
2026-05-03 23:15 42.37121 -71.02278 32 ft 4 kts 144°
2026-05-03 23:15 42.37135 -71.02299 32 ft 4 kts 112°
2026-05-03 23:15 42.37139 -71.02330 29 ft 4 kts 88°
2026-05-03 23:15 42.37137 -71.02359 31 ft 0 kts 86°
2026-05-03 23:16 42.37138 -71.02359 31 ft 0 kts 86°
2026-05-03 23:18 42.37138 -71.02336 29 ft 7 kts 86°
2026-05-03 23:18 42.37157 -71.02251 34 ft 10 kts 56°
2026-05-03 23:19 42.37201 -71.02183 34 ft 9 kts 47°
2026-05-03 23:19 42.37231 -71.02113 34 ft 8 kts 75°
2026-05-03 23:19 42.37233 -71.02039 34 ft 7 kts 94°
2026-05-03 23:19 42.37237 -71.01976 34 ft 7 kts 71°
2026-05-03 23:20 42.37266 -71.01916 34 ft 8 kts 46°
2026-05-03 23:20 42.37300 -71.01861 34 ft 6 kts 73°
2026-05-03 23:20 42.37277 -71.01804 34 ft 8 kts 131°
2026-05-03 23:20 42.37230 -71.01737 33 ft 14 kts 134°
2026-05-03 23:21 42.37151 -71.01630 34 ft 17 kts 134°
2026-05-03 23:21 42.37067 -71.01516 34 ft 18 kts 135°
2026-05-03 23:21 42.36975 -71.01394 34 ft 19 kts 135°
2026-05-03 23:21 42.36874 -71.01258 34 ft 21 kts 135°
2026-05-03 23:22 42.36654 -71.01179 34 ft 18 kts 202°
2026-05-03 23:22 42.36533 -71.01239 34 ft 19 kts 199°
2026-05-03 23:22 42.36399 -71.01304 34 ft 21 kts 199°
2026-05-03 23:23 42.36342 -71.01314 34 ft 6 kts 149°
2026-05-03 23:23 42.36309 -71.01257 34 ft 9 kts 121°
2026-05-03 23:23 42.36272 -71.01174 34 ft 11 kts 120°
2026-05-03 23:23 42.36234 -71.01069 34 ft 13 kts 114°
2026-05-03 23:24 42.36195 -71.00949 34 ft 15 kts 114°
2026-05-03 23:24 42.36158 -71.00840 34 ft 6 kts 114°
2026-05-03 23:24 42.36157 -71.00836 34 ft 0 kts 114°
2026-05-03 23:25 42.36151 -71.00817 34 ft 6 kts 114°
2026-05-03 23:25 42.36123 -71.00726 35 ft 13 kts 110°
2026-05-03 23:25 42.36092 -71.00606 34 ft 14 kts 109°
2026-05-03 23:25 42.36058 -71.00476 34 ft 15 kts 109°
2026-05-03 23:26 42.36023 -71.00335 34 ft 16 kts 108°
2026-05-03 23:26 42.35986 -71.00189 34 ft 17 kts 109°
2026-05-03 23:26 42.35935 -71.00060 34 ft 11 kts 128°
2026-05-03 23:26 42.35917 -71.00032 34 ft 0 kts 134°
2026-05-03 23:27 42.35908 -71.00020 34 ft 6 kts 134°
2026-05-03 23:27 42.35856 -70.99949 34 ft 15 kts 135°
2026-05-03 23:27 42.35770 -70.99834 34 ft 18 kts 135°
2026-05-03 23:27 42.35674 -70.99707 34 ft 20 kts 135°
2026-05-03 23:28 42.35568 -70.99565 34 ft 22 kts 135°
2026-05-03 23:28 42.35490 -70.99405 34 ft 20 kts 88°
2026-05-03 23:28 42.35511 -70.99269 34 ft 10 kts 58°
2026-05-03 23:28 42.35543 -70.99271 34 ft 6 kts 314°
2026-05-03 23:29 42.35599 -70.99346 34 ft 32 kts 315°
2026-05-03 23:29 42.35897 -70.99744 34 ft 86 kts 315°
2026-05-03 23:29 42.36445 -71.00477 34 ft 132 kts 315°
2026-05-03 23:29 42.37192 -71.01476 58 ft 165 kts 314°
2026-05-03 23:30 42.38009 -71.02562 566 ft 162 kts 314°
2026-05-03 23:30 42.38801 -71.03652 1049 ft 162 kts 309°
2026-05-03 23:30 42.39506 -71.04861 1496 ft 166 kts 299°
2026-05-03 23:30 42.40029 -71.06269 1929 ft 170 kts 291°
2026-05-03 23:31 42.40531 -71.07772 2296 ft 179 kts 293°
2026-05-03 23:31 42.41099 -71.09325 2640 ft 190 kts 300°
2026-05-03 23:31 42.42059 -71.10642 2919 ft 210 kts 329°
2026-05-03 23:31 42.43555 -71.11001 3224 ft 231 kts 354°
2026-05-03 23:32 42.45194 -71.11351 3423 ft 246 kts 335°
2026-05-03 23:32 42.46755 -71.12367 3867 ft 252 kts 329°
2026-05-03 23:32 42.48311 -71.13502 4470 ft 255 kts 329°
2026-05-03 23:32 42.49996 -71.14276 5134 ft 263 kts 354°
2026-05-03 23:33 42.51803 -71.13719 5746 ft 277 kts 27°
2026-05-03 23:33 42.53250 -71.11971 6414 ft 283 kts 49°
2026-05-03 23:33 42.54424 -71.09787 6997 ft 289 kts 52°
2026-05-03 23:33 42.55566 -71.07507 7586 ft 294 kts 53°
2026-05-03 23:34 42.56717 -71.05181 8210 ft 299 kts 52°
2026-05-03 23:34 42.57917 -71.02861 8882 ft 301 kts 51°
2026-05-03 23:34 42.59149 -71.00547 9591 ft 303 kts 51°
2026-05-03 23:34 42.60398 -70.98223 10243 ft 306 kts 50°
2026-05-03 23:35 42.61662 -70.95876 10884 ft 310 kts 50°
2026-05-03 23:35 42.62944 -70.93466 11396 ft 320 kts 51°
2026-05-03 23:35 42.64275 -70.90941 11664 ft 337 kts 51°
2026-05-03 23:35 42.65683 -70.88306 12003 ft 351 kts 50°
2026-05-03 23:36 42.67170 -70.85576 12312 ft 367 kts 50°
2026-05-03 23:36 42.68705 -70.82702 12613 ft 383 kts 51°
2026-05-03 23:36 42.69751 -70.80727 12802 ft 393 kts 51°
2026-05-03 23:36 42.71381 -70.77649 13124 ft 407 kts 51°
2026-05-03 23:37 42.73055 -70.74488 13677 ft 414 kts 51°
2026-05-03 23:37 42.74747 -70.71293 14275 ft 417 kts 51°
2026-05-03 23:37 42.76452 -70.68077 14918 ft 420 kts 50°
2026-05-03 23:37 42.78173 -70.64836 15547 ft 423 kts 51°
2026-05-03 23:38 42.79936 -70.61611 16178 ft 425 kts 48°
2026-05-03 23:38 42.81835 -70.58510 16793 ft 426 kts 45°
2026-05-03 23:38 42.83793 -70.55459 17415 ft 429 kts 44°
2026-05-03 23:38 42.85776 -70.52394 18033 ft 432 kts 44°
2026-05-03 23:39 42.87772 -70.49305 18515 ft 436 kts 44°
2026-05-03 23:39 42.89788 -70.46178 19003 ft 440 kts 44°
2026-05-03 23:39 42.91818 -70.43024 19491 ft 444 kts 44°
2026-05-03 23:39 42.93864 -70.39841 19965 ft 447 kts 44°
2026-05-03 23:40 42.95922 -70.36628 20421 ft 451 kts 44°
2026-05-03 23:40 42.97991 -70.33393 20849 ft 454 kts 44°
2026-05-03 23:40 43.00073 -70.30133 21255 ft 458 kts 44°
2026-05-03 23:40 43.02175 -70.26840 21655 ft 461 kts 44°
2026-05-03 23:41 43.04291 -70.23519 22088 ft 465 kts 44°
2026-05-03 23:41 43.06422 -70.20173 22518 ft 468 kts 44°
2026-05-03 23:41 43.08571 -70.16800 22894 ft 472 kts 44°
2026-05-03 23:41 43.10711 -70.13433 23209 ft 477 kts 44°
2026-05-03 23:42 43.12898 -70.09986 23541 ft 481 kts 44°
2026-05-03 23:42 43.15097 -70.06514 23909 ft 484 kts 45°
2026-05-03 23:42 43.17307 -70.03021 24299 ft 486 kts 45°